Location: Gesvres
(49.0440°N, 2.8518°E)
Time: 19:46:00
(UTC+00:00)

CZ-4 R/B - Pass Details

Date: 28 January 2023
Orbit: 526 x 587 km, 97.7° (Epoch: 26 March)

Event Time Altitude Azimuth Distance (km) Brightness Sun altitude
Rises 19:49:22 0° 200° (SSW) 2,811 5.1 -31.1°
Reaches altitude 10° 19:51:57 10° 216° (SW) 1,912 4.3 -31.6°
Maximum altitude 19:55:10 22° 267° (W) 1,318 3.8 -32.1°
Drops below altitude 10° 19:58:23 10° 318° (NW) 1,908 4.6 -32.6°
Sets 20:00:57 0° 335° (NNW) 2,803 5.4 -33.0°
